TimeMST,TemperatureF,Dew PointF,Humidity,Sea Level PressureIn,VisibilityMPH,Wind Direction,Wind SpeedMPH,Gust SpeedMPH,PrecipitationIn,Events,Conditions,WindDirDegrees,DateUTC
12:15 AM,69.8,35.6,28,29.91,10.0,NNE,4.6,-,N/A,,Clear,30,2013-10-02 07:15:00
12:35 AM,68.0,35.6,30,29.91,10.0,East,5.8,-,N/A,,Clear,80,2013-10-02 07:35:00
12:55 AM,66.2,33.8,30,29.91,10.0,East,4.6,-,N/A,,Clear,100,2013-10-02 07:55:00
1:15 AM,66.2,32.0,28,29.91,10.0,ESE,6.9,-,N/A,,Clear,110,2013-10-02 08:15:00
1:35 AM,66.2,33.8,30,29.92,10.0,ESE,5.8,-,N/A,,Clear,120,2013-10-02 08:35:00
1:55 AM,62.6,37.4,39,29.92,10.0,SSE,6.9,-,N/A,,Clear,150,2013-10-02 08:55:00
2:15 AM,62.6,39.2,42,29.92,10.0,SSE,9.2,-,N/A,,Clear,160,2013-10-02 09:15:00
2:35 AM,64.4,39.2,40,29.92,10.0,SSE,8.1,-,N/A,,Clear,160,2013-10-02 09:35:00
2:55 AM,62.6,37.4,39,29.92,10.0,SSE,9.2,-,N/A,,Clear,150,2013-10-02 09:55:00
3:15 AM,64.4,35.6,34,29.92,10.0,SSE,8.1,-,N/A,,Clear,150,2013-10-02 10:15:00
3:35 AM,62.6,37.4,39,29.92,10.0,SSE,6.9,-,N/A,,Clear,150,2013-10-02 10:35:00
3:55 AM,62.6,37.4,39,29.93,10.0,East,4.6,-,N/A,,Clear,100,2013-10-02 10:55:00
4:15 AM,62.6,37.4,39,29.93,10.0,East,4.6,-,N/A,,Clear,100,2013-10-02 11:15:00
4:35 AM,62.6,33.8,34,29.93,10.0,East,6.9,-,N/A,,Clear,80,2013-10-02 11:35:00
4:47 AM,62.6,33.8,34,29.93,20.0,ENE,5.8,-,N/A,,Clear,70,2013-10-02 11:47:00
4:55 AM,62.6,33.8,34,29.93,10.0,East,8.1,-,N/A,,Clear,80,2013-10-02 11:55:00
5:15 AM,62.6,33.8,34,29.93,10.0,East,6.9,-,N/A,,Clear,100,2013-10-02 12:15:00
5:35 AM,64.4,33.8,32,29.93,10.0,East,8.1,-,N/A,,Clear,100,2013-10-02 12:35:00
6:49 AM,66.2,37.4,35,29.94,45.0,East,5.8,-,N/A,,Clear,100,2013-10-02 13:49:00
8:47 AM,78.8,42.8,28,29.97,45.0,SSE,5.8,-,N/A,,Clear,150,2013-10-02 15:47:00
9:54 AM,80.6,42.8,26,29.97,45.0,SSE,5.8,-,N/A,,Clear,150,2013-10-02 16:54:00
10:47 AM,84.2,42.8,23,29.96,45.0,SSE,4.6,-,N/A,,Clear,150,2013-10-02 17:47:00
11:47 AM,86.0,39.2,19,29.94,45.0,SE,5.8,-,N/A,,Clear,130,2013-10-02 18:47:00
12:47 PM,87.8,39.2,18,29.91,45.0,Variable,3.5,-,N/A,,Clear,0,2013-10-02 19:47:00
1:47 PM,89.6,39.2,17,29.88,45.0,Variable,4.6,-,N/A,,Clear,0,2013-10-02 20:47:00
2:47 PM,89.6,39.2,17,29.86,45.0,WSW,5.8,-,N/A,,Clear,240,2013-10-02 21:47:00
3:47 PM,91.4,39.2,16,29.84,45.0,WSW,11.5,-,N/A,,Clear,240,2013-10-02 22:47:00
4:47 PM,89.6,37.4,16,29.83,45.0,Calm,Calm,-,N/A,,Clear,0,2013-10-02 23:47:00
5:47 PM,87.8,35.6,16,29.83,45.0,WSW,4.6,-,N/A,,Clear,240,2013-10-03 00:47:00
6:47 PM,86.0,35.6,17,29.83,20.0,Calm,Calm,-,N/A,,Clear,0,2013-10-03 01:47:00
7:47 PM,82.4,37.4,20,29.84,20.0,Calm,Calm,-,N/A,,Clear,0,2013-10-03 02:47:00
7:55 PM,80.6,35.6,20,29.84,10.0,Calm,Calm,-,N/A,,Clear,0,2013-10-03 02:55:00
8:15 PM,78.8,35.6,21,29.84,10.0,Calm,Calm,-,N/A,,Clear,0,2013-10-03 03:15:00
8:35 PM,73.4,41.0,31,29.84,10.0,Calm,Calm,-,N/A,,Clear,0,2013-10-03 03:35:00
8:47 PM,73.4,42.8,33,29.84,20.0,Calm,Calm,-,N/A,,Clear,0,2013-10-03 03:47:00
8:55 PM,73.4,42.8,33,29.84,10.0,Calm,Calm,-,N/A,,Clear,0,2013-10-03 03:55:00
9:15 PM,73.4,39.2,29,29.85,10.0,Calm,Calm,-,N/A,,Clear,0,2013-10-03 04:15:00
9:35 PM,71.6,37.4,29,29.85,10.0,Calm,Calm,-,N/A,,Clear,0,2013-10-03 04:35:00
9:50 PM,73.4,39.2,29,29.85,20.0,Calm,Calm,-,N/A,,Clear,0,2013-10-03 04:50:00
9:55 PM,73.4,37.4,27,29.85,10.0,Calm,Calm,-,N/A,,Clear,0,2013-10-03 04:55:00
10:15 PM,71.6,37.4,29,29.85,10.0,Calm,Calm,-,N/A,,Clear,0,2013-10-03 05:15:00
10:35 PM,69.8,39.2,33,29.85,10.0,ESE,5.8,-,N/A,,Clear,110,2013-10-03 05:35:00
10:45 PM,73.4,41.0,31,29.85,20.0,ESE,6.9,-,N/A,,Clear,110,2013-10-03 05:45:00
10:55 PM,69.8,39.2,33,29.85,10.0,ESE,6.9,-,N/A,,Clear,120,2013-10-03 05:55:00
11:15 PM,69.8,39.2,33,29.85,10.0,ESE,5.8,-,N/A,,Clear,110,2013-10-03 06:15:00
11:35 PM,69.8,37.4,31,29.85,10.0,ESE,6.9,-,N/A,,Clear,120,2013-10-03 06:35:00
11:47 PM,69.8,39.2,33,29.84,20.0,ESE,5.8,-,N/A,,Clear,110,2013-10-03 06:47:00
11:55 PM,68.0,37.4,33,29.84,10.0,ESE,4.6,-,N/A,,Clear,120,2013-10-03 06:55:00